When you browse on this site, cookies collect data to enhance your experience and personalize the content and advertising you see.
Visit our Privacy Policy to learn more. By continuing to use the site, you agree to this use of cookies and data.

Hourly Weather Dietikon

Today, 12 August, Wednesday

Time Temperature Precipitation Wind Pressure Humidity
00:00 +21°C° 0.2 mm 1 mps 725 mmHg 87%
01:00 +21°C° 0 mm 1 mps 725 mmHg 86%
02:00 +21°C° 0 mm 1 mps 725 mmHg 86%
03:00 +20°C° 0 mm 1 mps 725 mmHg 86%
04:00 +18°C° 0 mm 0 mps 725 mmHg 87%
05:00 +19°C° 0.1 mm 0 mps 725 mmHg 86%
06:00 +19°C° 0.1 mm 0 mps 725 mmHg 86%
07:00 +20°C° 0 mm 0 mps 725 mmHg 86%
08:00 +22°C° 0.2 mm 0 mps 725 mmHg 79%
09:00 +25°C° 0.2 mm 0 mps 725 mmHg 71%
10:00 +27°C° 0.2 mm 0 mps 725 mmHg 64%
11:00 +28°C° 0 mm 0 mps 725 mmHg 58%
12:00 +30°C° 0 mm 0 mps 725 mmHg 52%
13:00 +31°C° 0 mm 0 mps 725 mmHg 48%
14:00 +33°C° 0 mm 1 mps 725 mmHg 47%
15:00 +33°C° 0 mm 1 mps 725 mmHg 45%
16:00 +33°C° 0 mm 1 mps 724 mmHg 44%
17:00 +29°C° 2.5 mm 2 mps 724 mmHg 60%
18:00 +26°C° 2.5 mm 3 mps 724 mmHg 75%
19:00 +21°C° 2.5 mm 4 mps 724 mmHg 91%
20:00 +21°C° 2.1 mm 3 mps 725 mmHg 91%
21:00 +20°C° 2.1 mm 2 mps 725 mmHg 92%
22:00 +20°C° 2.1 mm 1 mps 725 mmHg 92%
23:00 +20°C° 0 mm 1 mps 725 mmHg 91%

Tomorrow, 13 August, Thursday

Time Temperature Precipitation Wind Pressure Humidity
00:00 +20°C° 0 mm 1 mps 725 mmHg 90%
01:00 +20°C° 0 mm 1 mps 725 mmHg 88%
02:00 +20°C° 0 mm 1 mps 724 mmHg 87%
03:00 +20°C° 0 mm 1 mps 724 mmHg 86%
04:00 +20°C° 0 mm 1 mps 724 mmHg 85%
05:00 +20°C° 0 mm 1 mps 724 mmHg 86%
06:00 +21°C° 0 mm 1 mps 724 mmHg 86%
07:00 +19°C° 0 mm 0 mps 724 mmHg 87%
08:00 +21°C° 0 mm 0 mps 724 mmHg 78%
09:00 +23°C° 0 mm 0 mps 725 mmHg 69%
10:00 +26°C° 0 mm 0 mps 725 mmHg 60%
11:00 +29°C° 0.1 mm 1 mps 725 mmHg 56%
12:00 +30°C° 0.1 mm 1 mps 725 mmHg 52%
13:00 +31°C° 0.1 mm 1 mps 725 mmHg 47%
14:00 +30°C° 0.2 mm 1 mps 725 mmHg 49%
15:00 +30°C° 0.2 mm 2 mps 725 mmHg 51%
16:00 +30°C° 0.2 mm 2 mps 724 mmHg 52%
17:00 +28°C° 0.4 mm 2 mps 724 mmHg 62%
18:00 +25°C° 0.4 mm 1 mps 724 mmHg 72%
19:00 +23°C° 0.4 mm 1 mps 724 mmHg 82%
20:00 +22°C° 0.1 mm 1 mps 724 mmHg 85%
21:00 +21°C° 0.1 mm 1 mps 724 mmHg 87%
22:00 +20°C° 0.1 mm 1 mps 724 mmHg 90%
23:00 +20°C° 0.3 mm 1 mps 724 mmHg 91%

Day after tomorrow, 14 August, Friday

Time Temperature Precipitation Wind Pressure Humidity
00:00 +20°C° 0.3 mm 1 mps 724 mmHg 93%
01:00 +20°C° 0.3 mm 1 mps 724 mmHg 94%
02:00 +20°C° 0.1 mm 1 mps 724 mmHg 94%
03:00 +19°C° 0.1 mm 1 mps 724 mmHg 94%
04:00 +19°C° 0.1 mm 1 mps 724 mmHg 94%
05:00 +19°C° 0 mm 1 mps 724 mmHg 94%
06:00 +20°C° 0 mm 1 mps 724 mmHg 94%
07:00 +20°C° 0 mm 1 mps 724 mmHg 94%
08:00 +21°C° 0.1 mm 1 mps 725 mmHg 86%
09:00 +23°C° 0.1 mm 1 mps 725 mmHg 79%
10:00 +24°C° 0.1 mm 2 mps 725 mmHg 71%
11:00 +25°C° 0.1 mm 2 mps 725 mmHg 67%
12:00 +26°C° 0.1 mm 1 mps 725 mmHg 63%
13:00 +27°C° 0.1 mm 1 mps 724 mmHg 58%
14:00 +27°C° 0.4 mm 1 mps 724 mmHg 61%
15:00 +27°C° 0.4 mm 1 mps 724 mmHg 64%
16:00 +26°C° 0.4 mm 1 mps 724 mmHg 67%
17:00 +25°C° 0.2 mm 1 mps 724 mmHg 73%
18:00 +24°C° 0.2 mm 1 mps 724 mmHg 79%
19:00 +22°C° 0.2 mm 1 mps 724 mmHg 85%
20:00 +21°C° 0 mm 1 mps 724 mmHg 87%
21:00 +20°C° 0 mm 1 mps 724 mmHg 88%
22:00 +19°C° 0 mm 1 mps 725 mmHg 90%
23:00 +18°C° 0 mm 1 mps 724 mmHg 91%

15 August, Saturday

Time Temperature Precipitation Wind Pressure Humidity
00:00 +16°C° 0 mm 0 mps 724 mmHg 91%
01:00 +16°C° 0 mm 0 mps 724 mmHg 92%
02:00 +15°C° 0 mm 0 mps 724 mmHg 92%
03:00 +15°C° 0 mm 0 mps 724 mmHg 93%
04:00 +15°C° 0 mm 0 mps 724 mmHg 93%
05:00 +15°C° 0 mm 0 mps 724 mmHg 92%
06:00 +16°C° 0 mm 0 mps 724 mmHg 91%
07:00 +17°C° 0 mm 0 mps 724 mmHg 89%
08:00 +19°C° 0 mm 0 mps 724 mmHg 81%
09:00 +22°C° 0 mm 0 mps 724 mmHg 72%
10:00 +24°C° 0 mm 0 mps 725 mmHg 64%
11:00 +25°C° 0 mm 0 mps 724 mmHg 59%
12:00 +27°C° 0 mm 0 mps 724 mmHg 54%
13:00 +30°C° 0 mm 1 mps 724 mmHg 49%
14:00 +30°C° 0 mm 1 mps 724 mmHg 49%
15:00 +30°C° 0 mm 1 mps 724 mmHg 48%
16:00 +29°C° 0 mm 1 mps 723 mmHg 48%
17:00 +28°C° 0 mm 1 mps 723 mmHg 57%
18:00 +26°C° 0 mm 1 mps 723 mmHg 66%
19:00 +22°C° 0 mm 0 mps 723 mmHg 75%
20:00 +23°C° 0 mm 1 mps 723 mmHg 79%
21:00 +21°C° 0 mm 1 mps 723 mmHg 84%
22:00 +20°C° 0 mm 1 mps 723 mmHg 88%
23:00 +19°C° 0 mm 1 mps 723 mmHg 89%

16 August, Sunday

Time Temperature Precipitation Wind Pressure Humidity
00:00 +17°C° 0 mm 0 mps 723 mmHg 90%
01:00 +16°C° 0 mm 0 mps 723 mmHg 91%
02:00 +16°C° 0 mm 0 mps 723 mmHg 92%
03:00 +16°C° 0 mm 0 mps 723 mmHg 93%
04:00 +15°C° 0 mm 0 mps 723 mmHg 93%
05:00 +16°C° 0 mm 0 mps 723 mmHg 91%
06:00 +17°C° 0 mm 0 mps 723 mmHg 90%
07:00 +18°C° 0 mm 0 mps 723 mmHg 88%
08:00 +20°C° 0 mm 0 mps 723 mmHg 79%
09:00 +23°C° 0 mm 0 mps 723 mmHg 71%
10:00 +25°C° 0 mm 0 mps 724 mmHg 62%
11:00 +27°C° 0 mm 0 mps 723 mmHg 56%
12:00 +30°C° 0 mm 1 mps 723 mmHg 50%
13:00 +32°C° 0 mm 1 mps 723 mmHg 43%
14:00 +31°C° 0 mm 1 mps 723 mmHg 42%
15:00 +31°C° 0 mm 1 mps 723 mmHg 41%
16:00 +31°C° 0 mm 1 mps 723 mmHg 40%
17:00 +29°C° 0 mm 1 mps 723 mmHg 48%
18:00 +24°C° 0 mm 0 mps 722 mmHg 57%
19:00 +22°C° 0 mm 0 mps 722 mmHg 65%
20:00 +21°C° 0 mm 0 mps 722 mmHg 67%
21:00 +22°C° 0 mm 1 mps 722 mmHg 70%
22:00 +21°C° 0 mm 1 mps 722 mmHg 72%
23:00 +20°C° 0 mm 1 mps 722 mmHg 74%

17 August, Monday

Time Temperature Precipitation Wind Pressure Humidity
00:00 +20°C° 0 mm 1 mps 722 mmHg 76%
01:00 +19°C° 0 mm 1 mps 721 mmHg 78%
02:00 +17°C° 0 mm 0 mps 721 mmHg 79%
03:00 +16°C° 0 mm 0 mps 721 mmHg 80%
04:00 +16°C° 0 mm 0 mps 721 mmHg 81%
05:00 +17°C° 0 mm 0 mps 721 mmHg 81%
06:00 +17°C° 0 mm 0 mps 721 mmHg 80%
07:00 +18°C° 0 mm 0 mps 721 mmHg 80%
08:00 +21°C° 0 mm 1 mps 722 mmHg 75%
09:00 +23°C° 0 mm 1 mps 722 mmHg 71%
10:00 +25°C° 0 mm 2 mps 722 mmHg 66%
11:00 +24°C° 0.8 mm 2 mps 722 mmHg 73%
12:00 +24°C° 0.8 mm 2 mps 722 mmHg 79%
13:00 +22°C° 0.8 mm 3 mps 722 mmHg 86%
14:00 +23°C° 0.4 mm 2 mps 722 mmHg 85%
15:00 +24°C° 0.4 mm 2 mps 722 mmHg 84%
16:00 +24°C° 0.4 mm 1 mps 722 mmHg 82%
17:00 +23°C° 0.3 mm 1 mps 722 mmHg 84%
18:00 +22°C° 0.3 mm 1 mps 722 mmHg 86%
19:00 +20°C° 0.3 mm 0 mps 722 mmHg 87%
20:00 +19°C° 0.3 mm 0 mps 722 mmHg 88%
21:00 +18°C° 0.3 mm 0 mps 722 mmHg 90%
22:00 +17°C° 0.3 mm 0 mps 722 mmHg 91%
23:00 +19°C° 0.6 mm 1 mps 722 mmHg 92%
Show more